Time,TemperatureF,DewpointF,PressureIn,WindDirection,WindDirectionDegrees,WindSpeedMPH,WindSpeedGustMPH,Humidity,HourlyPrecipIn,Conditions,Clouds,dailyrainin,SoftwareType,DateUTC
2013-08-04 00:02:00,59.2,23.3,30.18,North,11,0.0,0.0,25,0.00,,,0.00,WeatherDisplay:10.37,2013-08-04 07:02:00,
2013-08-04 00:07:00,58.8,23.0,30.18,North,11,0.0,0.0,25,0.00,,,0.00,WeatherDisplay:10.37,2013-08-04 07:07:00,
2013-08-04 00:12:00,58.6,22.9,30.18,North,11,0.0,0.0,25,0.00,,,0.00,WeatherDisplay:10.37,2013-08-04 07:12:00,
2013-08-04 00:22:00,58.8,22.1,30.18,North,11,0.0,0.0,24,0.00,,,0.00,WeatherDisplay:10.37,2013-08-04 07:22:00,
2013-08-04 00:27:00,58.6,21.9,30.18,North,11,0.0,0.0,24,0.00,,,0.00,WeatherDisplay:10.37,2013-08-04 07:27:00,
2013-08-04 00:32:00,58.5,21.8,30.18,North,11,0.0,0.0,24,0.00,,,0.00,WeatherDisplay:10.37,2013-08-04 07:32:00,
2013-08-04 00:37:00,58.5,21.8,30.18,North,11,0.0,0.0,24,0.00,,,0.00,WeatherDisplay:10.37,2013-08-04 07:37:00,
2013-08-04 00:42:00,58.8,20.0,30.18,North,11,0.0,0.0,22,0.00,,,0.00,WeatherDisplay:10.37,2013-08-04 07:42:00,
2013-08-04 00:47:00,59.2,20.3,30.18,North,11,0.0,0.0,22,0.00,,,0.00,WeatherDisplay:10.37,2013-08-04 07:47:00,
2013-08-04 00:52:00,59.0,20.2,30.18,North,11,0.0,0.0,22,0.00,,,0.00,WeatherDisplay:10.37,2013-08-04 07:52:00,
2013-08-04 00:57:00,58.8,20.0,30.18,North,11,0.0,0.0,22,0.00,,,0.00,WeatherDisplay:10.37,2013-08-04 07:57:00,
2013-08-04 01:02:00,58.6,19.9,30.18,North,11,0.0,0.0,22,0.00,,,0.00,WeatherDisplay:10.37,2013-08-04 08:02:00,
2013-08-04 01:07:00,58.9,20.1,30.18,North,11,0.0,0.0,22,0.00,,,0.00,WeatherDisplay:10.37,2013-08-04 08:07:00,
2013-08-04 01:12:00,59.5,20.6,30.18,North,11,0.0,0.0,22,0.00,,,0.00,WeatherDisplay:10.37,2013-08-04 08:12:00,
2013-08-04 01:17:00,60.3,21.2,30.18,North,11,0.0,0.0,22,0.00,,,0.00,WeatherDisplay:10.37,2013-08-04 08:17:00,
2013-08-04 01:27:00,60.1,21.0,30.18,North,11,0.0,0.0,22,0.00,,,0.00,WeatherDisplay:10.37,2013-08-04 08:27:00,
2013-08-04 01:32:00,59.5,20.6,30.18,North,11,0.0,0.0,22,0.00,,,0.00,WeatherDisplay:10.37,2013-08-04 08:32:00,
2013-08-04 01:37:00,59.2,20.3,30.18,North,11,0.0,0.0,22,0.00,,,0.00,WeatherDisplay:10.37,2013-08-04 08:37:00,
2013-08-04 01:42:00,59.0,20.2,30.18,North,11,0.0,0.0,22,0.00,,,0.00,WeatherDisplay:10.37,2013-08-04 08:42:00,
2013-08-04 01:47:00,59.2,20.3,30.18,North,11,0.0,0.0,22,0.00,,,0.00,WeatherDisplay:10.37,2013-08-04 08:47:00,
2013-08-04 01:52:00,59.5,20.6,30.18,North,11,0.0,0.0,22,0.00,,,0.00,WeatherDisplay:10.37,2013-08-04 08:52:00,
2013-08-04 01:57:00,59.5,20.6,30.18,North,11,0.0,0.0,22,0.00,,,0.00,WeatherDisplay:10.37,2013-08-04 08:57:00,
2013-08-04 02:02:00,59.6,20.7,30.18,North,11,0.0,0.0,22,0.00,,,0.00,WeatherDisplay:10.37,2013-08-04 09:02:00,
2013-08-04 02:07:00,60.1,21.1,30.18,North,11,0.0,0.0,22,0.00,,,0.00,WeatherDisplay:10.37,2013-08-04 09:07:00,
2013-08-04 02:12:00,60.4,21.4,30.18,North,11,0.0,0.0,22,0.00,,,0.00,WeatherDisplay:10.37,2013-08-04 09:12:00,
2013-08-04 02:17:00,60.4,21.4,30.18,North,5,0.0,0.0,22,0.00,,,0.00,WeatherDisplay:10.37,2013-08-04 09:17:00,
2013-08-04 02:22:00,60.1,21.1,30.18,NW,325,0.0,0.0,22,0.00,,,0.00,WeatherDisplay:10.37,2013-08-04 09:22:00,
2013-08-04 02:27:00,60.1,21.1,30.18,West,281,0.0,4.0,22,0.00,,,0.00,WeatherDisplay:10.37,2013-08-04 09:27:00,
2013-08-04 02:32:00,59.5,20.6,30.18,WSW,258,0.0,4.0,22,0.00,,,0.00,WeatherDisplay:10.37,2013-08-04 09:32:00,
2013-08-04 02:37:00,59.4,17.0,30.18,NW,306,0.0,0.0,19,0.00,,,0.00,WeatherDisplay:10.37,2013-08-04 09:37:00,
2013-08-04 02:42:00,59.9,17.5,30.18,NNW,329,0.0,0.0,19,0.00,,,0.00,WeatherDisplay:10.37,2013-08-04 09:42:00,
2013-08-04 02:47:00,60.3,17.8,30.18,NNW,328,0.0,0.0,19,0.00,,,0.00,WeatherDisplay:10.37,2013-08-04 09:47:00,
2013-08-04 02:52:00,60.1,17.7,30.18,NNW,328,0.0,0.0,19,0.00,,,0.00,WeatherDisplay:10.37,2013-08-04 09:52:00,
2013-08-04 02:57:00,59.9,17.5,30.18,WNW,293,1.0,3.0,19,0.00,,,0.00,WeatherDisplay:10.37,2013-08-04 09:57:00,
2013-08-04 03:02:00,59.5,17.2,30.18,WSW,256,0.0,0.0,19,0.00,,,0.00,WeatherDisplay:10.37,2013-08-04 10:02:00,
2013-08-04 03:07:00,59.5,17.2,30.18,WSW,253,0.0,0.0,19,0.00,,,0.00,WeatherDisplay:10.37,2013-08-04 10:07:00,
2013-08-04 03:12:00,59.7,17.3,30.18,WSW,253,0.0,0.0,19,0.00,,,0.00,WeatherDisplay:10.37,2013-08-04 10:12:00,
2013-08-04 03:17:00,59.5,17.2,30.18,WSW,247,0.0,0.0,19,0.00,,,0.00,WeatherDisplay:10.37,2013-08-04 10:17:00,
2013-08-04 03:22:00,59.4,17.0,30.18,WSW,251,0.0,0.0,19,0.00,,,0.00,WeatherDisplay:10.37,2013-08-04 10:22:00,
2013-08-04 03:27:00,59.4,17.0,30.17,WSW,258,0.0,0.0,19,0.00,,,0.00,WeatherDisplay:10.37,2013-08-04 10:27:00,
2013-08-04 03:32:00,59.5,17.2,30.15,West,259,0.0,0.0,19,0.00,,,0.00,WeatherDisplay:10.37,2013-08-04 10:32:00,
2013-08-04 03:37:00,59.5,17.2,30.15,West,259,0.0,0.0,19,0.00,,,0.00,WeatherDisplay:10.37,2013-08-04 10:37:00,
2013-08-04 03:42:00,59.4,17.0,30.15,West,259,0.0,0.0,19,0.00,,,0.00,WeatherDisplay:10.37,2013-08-04 10:42:00,
2013-08-04 03:52:00,59.5,17.2,30.15,West,259,0.0,0.0,19,0.00,,,0.00,WeatherDisplay:10.37,2013-08-04 10:52:00,
2013-08-04 04:02:00,59.2,16.9,30.15,West,259,0.0,0.0,19,0.00,,,0.00,WeatherDisplay:10.37,2013-08-04 11:02:00,
2013-08-04 04:07:00,58.8,16.6,30.15,West,259,0.0,0.0,19,0.00,,,0.00,WeatherDisplay:10.37,2013-08-04 11:07:00,
2013-08-04 04:12:00,58.3,16.1,30.15,West,259,0.0,0.0,19,0.00,,,0.00,WeatherDisplay:10.37,2013-08-04 11:12:00,
2013-08-04 04:17:00,57.9,15.8,30.15,WNW,283,0.0,2.0,19,0.00,,,0.00,WeatherDisplay:10.37,2013-08-04 11:17:00,
2013-08-04 04:22:00,57.9,15.8,30.15,West,274,0.0,4.0,19,0.00,,,0.00,WeatherDisplay:10.37,2013-08-04 11:22:00,
2013-08-04 04:32:00,57.7,15.7,30.15,North,353,0.0,0.0,19,0.00,,,0.00,WeatherDisplay:10.37,2013-08-04 11:32:00,
2013-08-04 04:37:00,57.6,15.5,30.15,North,353,0.0,0.0,19,0.00,,,0.00,WeatherDisplay:10.37,2013-08-04 11:37:00,
2013-08-04 04:42:00,57.6,15.6,30.15,North,353,0.0,0.0,19,0.00,,,0.00,WeatherDisplay:10.37,2013-08-04 11:42:00,
2013-08-04 04:47:00,57.9,15.8,30.15,North,353,0.0,0.0,19,0.00,,,0.00,WeatherDisplay:10.37,2013-08-04 11:47:00,
2013-08-04 04:52:00,57.9,15.8,30.15,North,353,0.0,0.0,19,0.00,,,0.00,WeatherDisplay:10.37,2013-08-04 11:52:00,
2013-08-04 04:58:00,57.6,15.5,30.16,North,353,0.0,0.0,19,0.00,,,0.00,WeatherDisplay:10.37,2013-08-04 11:58:00,
2013-08-04 05:07:00,57.8,13.2,30.18,North,353,0.0,0.0,17,0.00,,,0.00,WeatherDisplay:10.37,2013-08-04 12:07:00,
2013-08-04 05:12:00,58.8,14.0,30.18,North,353,0.0,0.0,17,0.00,,,0.00,WeatherDisplay:10.37,2013-08-04 12:12:00,
2013-08-04 05:17:00,59.4,14.5,30.18,North,353,0.0,0.0,17,0.00,,,0.00,WeatherDisplay:10.37,2013-08-04 12:17:00,
2013-08-04 05:22:00,60.1,15.1,30.18,North,353,0.0,0.0,17,0.00,,,0.00,WeatherDisplay:10.37,2013-08-04 12:22:00,
2013-08-04 05:27:00,60.8,14.3,30.18,North,353,0.0,0.0,16,0.00,,,0.00,WeatherDisplay:10.37,2013-08-04 12:27:00,
2013-08-04 05:32:00,61.3,14.7,30.18,North,353,0.0,0.0,16,0.00,,,0.00,WeatherDisplay:10.37,2013-08-04 12:32:00,
2013-08-04 05:37:00,61.3,14.7,30.18,North,353,0.0,0.0,16,0.00,,,0.00,WeatherDisplay:10.37,2013-08-04 12:37:00,
2013-08-04 05:42:00,61.6,14.9,30.18,North,353,0.0,0.0,16,0.00,,,0.00,WeatherDisplay:10.37,2013-08-04 12:42:00,
2013-08-04 05:47:00,61.9,15.1,30.18,North,353,0.0,0.0,16,0.00,,,0.00,WeatherDisplay:10.37,2013-08-04 12:47:00,
2013-08-04 05:52:00,61.9,15.1,30.18,North,353,0.0,0.0,16,0.00,,,0.00,WeatherDisplay:10.37,2013-08-04 12:52:00,
2013-08-04 05:57:00,61.7,15.0,30.18,North,353,0.0,0.0,16,0.00,,,0.00,WeatherDisplay:10.37,2013-08-04 12:57:00,
2013-08-04 06:02:00,61.5,14.8,30.18,North,353,0.0,0.0,16,0.00,,,0.00,WeatherDisplay:10.37,2013-08-04 13:02:00,
2013-08-04 06:07:00,61.2,14.5,30.18,North,353,0.0,0.0,16,0.00,,,0.00,WeatherDisplay:10.37,2013-08-04 13:07:00,
2013-08-04 06:17:00,61.2,14.5,30.18,North,353,0.0,0.0,16,0.00,,,0.00,WeatherDisplay:10.37,2013-08-04 13:17:00,
2013-08-04 06:22:00,61.0,14.4,30.18,North,353,0.0,0.0,16,0.00,,,0.00,WeatherDisplay:10.37,2013-08-04 13:22:00,
2013-08-04 06:27:00,60.9,14.3,30.18,North,353,0.0,0.0,16,0.00,,,0.00,WeatherDisplay:10.37,2013-08-04 13:27:00,
2013-08-04 06:32:00,60.4,15.4,30.18,North,353,0.0,0.0,17,0.00,,,0.00,WeatherDisplay:10.37,2013-08-04 13:32:00,
2013-08-04 06:37:00,60.2,15.1,30.18,North,353,0.0,0.0,17,0.00,,,0.00,WeatherDisplay:10.37,2013-08-04 13:37:00,
2013-08-04 06:42:00,60.2,15.1,30.18,North,353,0.0,0.0,17,0.00,,,0.00,WeatherDisplay:10.37,2013-08-04 13:42:00,
2013-08-04 06:47:00,60.3,15.2,30.18,North,353,0.0,0.0,17,0.00,,,0.00,WeatherDisplay:10.37,2013-08-04 13:47:00,
2013-08-04 06:52:00,60.3,15.2,30.18,North,353,0.0,0.0,17,0.00,,,0.00,WeatherDisplay:10.37,2013-08-04 13:52:00,
2013-08-04 06:57:00,60.3,15.2,30.18,North,353,0.0,0.0,17,0.00,,,0.00,WeatherDisplay:10.37,2013-08-04 13:57:00,
2013-08-04 07:02:00,60.4,17.9,30.18,NNW,336,0.0,0.0,19,0.00,,,0.00,WeatherDisplay:10.37,2013-08-04 14:02:00,
2013-08-04 07:07:00,60.4,17.9,30.18,West,259,0.0,0.0,19,0.00,,,0.00,WeatherDisplay:10.37,2013-08-04 14:07:00,
2013-08-04 07:12:00,60.4,17.9,30.18,SW,234,0.0,0.0,19,0.00,,,0.00,WeatherDisplay:10.37,2013-08-04 14:12:00,
2013-08-04 07:17:00,60.6,18.1,30.18,SW,234,0.0,0.0,19,0.00,,,0.00,WeatherDisplay:10.37,2013-08-04 14:17:00,
2013-08-04 07:22:00,60.9,18.3,30.18,SW,234,0.0,0.0,19,0.00,,,0.00,WeatherDisplay:10.37,2013-08-04 14:22:00,
2013-08-04 07:27:00,61.3,18.7,30.18,WSW,240,1.0,4.0,19,0.00,,,0.00,WeatherDisplay:10.37,2013-08-04 14:27:00,
2013-08-04 07:32:00,61.9,19.1,30.18,WSW,247,0.0,4.0,19,0.00,,,0.00,WeatherDisplay:10.37,2013-08-04 14:32:00,
2013-08-04 07:37:00,62.3,19.4,30.18,WSW,255,0.0,3.0,19,0.00,,,0.00,WeatherDisplay:10.37,2013-08-04 14:37:00,
2013-08-04 07:42:00,62.6,18.5,30.18,WSW,257,0.0,0.0,18,0.00,,,0.00,WeatherDisplay:10.37,2013-08-04 14:42:00,
2013-08-04 07:47:00,62.8,18.6,30.18,WSW,257,0.0,0.0,18,0.00,,,0.00,WeatherDisplay:10.37,2013-08-04 14:47:00,
2013-08-04 07:52:00,63.1,21.4,30.18,WSW,255,0.0,0.0,20,0.00,,,0.00,WeatherDisplay:10.37,2013-08-04 14:52:00,
2013-08-04 07:57:00,63.9,23.2,30.18,WSW,254,0.0,0.0,21,0.00,,,0.00,WeatherDisplay:10.37,2013-08-04 14:57:00,
2013-08-04 08:07:00,65.6,22.1,30.18,WSW,254,0.0,0.0,19,0.00,,,0.00,WeatherDisplay:10.37,2013-08-04 15:07:00,
2013-08-04 08:12:00,66.4,20.2,30.18,WSW,248,0.0,4.0,17,0.00,,,0.00,WeatherDisplay:10.37,2013-08-04 15:12:00,
2013-08-04 08:17:00,66.9,20.6,30.18,WSW,239,0.0,0.0,17,0.00,,,0.00,WeatherDisplay:10.37,2013-08-04 15:17:00,
2013-08-04 08:22:00,67.5,21.1,30.18,WSW,245,0.0,3.0,17,0.00,,,0.00,WeatherDisplay:10.37,2013-08-04 15:22:00,
2013-08-04 08:32:00,68.4,25.7,30.18,WSW,251,0.0,0.0,20,0.00,,,0.00,WeatherDisplay:10.37,2013-08-04 15:32:00,
2013-08-04 08:42:00,69.3,28.8,30.19,WSW,248,0.0,0.0,22,0.00,,,0.00,WeatherDisplay:10.37,2013-08-04 15:42:00,
2013-08-04 08:47:00,69.6,26.7,30.21,SW,234,0.0,3.0,20,0.00,,,0.00,WeatherDisplay:10.37,2013-08-04 15:47:00,
2013-08-04 08:52:00,70.0,25.8,30.21,SW,224,0.0,0.0,19,0.00,,,0.00,WeatherDisplay:10.37,2013-08-04 15:52:00,
2013-08-04 08:57:00,70.7,26.4,30.20,SW,233,0.0,0.0,19,0.00,,,0.00,WeatherDisplay:10.37,2013-08-04 15:57:00,
2013-08-04 09:02:00,71.6,27.1,30.18,WSW,239,0.0,0.0,19,0.00,,,0.00,WeatherDisplay:10.37,2013-08-04 16:02:00,
2013-08-04 09:07:00,72.3,27.7,30.18,SW,234,0.0,0.0,19,0.00,,,0.00,WeatherDisplay:10.37,2013-08-04 16:07:00,
2013-08-04 09:12:00,73.0,28.3,30.18,SW,233,1.0,4.0,19,0.00,,,0.00,WeatherDisplay:10.37,2013-08-04 16:12:00,
2013-08-04 09:17:00,73.6,24.6,30.21,SW,236,0.0,3.0,16,0.00,,,0.00,WeatherDisplay:10.37,2013-08-04 16:17:00,
2013-08-04 09:22:00,74.1,25.0,30.21,SW,229,2.0,6.0,16,0.00,,,0.00,WeatherDisplay:10.37,2013-08-04 16:22:00,
2013-08-04 09:27:00,74.4,25.3,30.21,SW,225,2.0,6.0,16,0.00,,,0.00,WeatherDisplay:10.37,2013-08-04 16:27:00,
2013-08-04 09:32:00,74.9,25.6,30.21,SW,227,3.0,6.0,16,0.00,,,0.00,WeatherDisplay:10.37,2013-08-04 16:32:00,
2013-08-04 09:37:00,75.4,24.5,30.21,SW,235,3.0,6.0,15,0.00,,,0.00,WeatherDisplay:10.37,2013-08-04 16:37:00,
2013-08-04 09:42:00,75.7,24.8,30.21,WSW,239,5.0,6.0,15,0.00,,,0.00,WeatherDisplay:10.37,2013-08-04 16:42:00,
2013-08-04 09:47:00,76.4,25.3,30.21,SW,231,5.0,6.0,15,0.00,,,0.00,WeatherDisplay:10.37,2013-08-04 16:47:00,
2013-08-04 09:52:00,76.8,25.6,30.21,SW,222,6.0,9.0,15,0.00,,,0.00,WeatherDisplay:10.37,2013-08-04 16:52:00,
2013-08-04 09:57:00,77.3,26.0,30.21,SW,223,0.0,4.0,15,0.00,,,0.00,WeatherDisplay:10.37,2013-08-04 16:57:00,
2013-08-04 10:02:00,77.0,25.7,30.21,SW,229,3.0,6.0,15,0.00,,,0.00,WeatherDisplay:10.37,2013-08-04 17:02:00,
2013-08-04 10:07:00,75.6,24.6,30.21,SW,236,3.0,6.0,15,0.00,,,0.00,WeatherDisplay:10.37,2013-08-04 17:07:00,
2013-08-04 10:12:00,74.5,25.3,30.21,SW,234,3.0,8.0,16,0.00,,,0.00,WeatherDisplay:10.37,2013-08-04 17:12:00,
2013-08-04 10:17:00,74.9,25.7,30.21,WSW,255,3.0,8.0,16,0.00,,,0.00,WeatherDisplay:10.37,2013-08-04 17:17:00,
2013-08-04 10:22:00,75.7,24.8,30.21,WSW,239,3.0,10.0,15,0.00,,,0.00,WeatherDisplay:10.37,2013-08-04 17:22:00,
2013-08-04 10:27:00,76.5,25.3,30.21,SW,224,3.0,9.0,15,0.00,,,0.00,WeatherDisplay:10.37,2013-08-04 17:27:00,
2013-08-04 10:32:00,77.0,25.8,30.21,WSW,243,3.0,8.0,15,0.00,,,0.00,WeatherDisplay:10.37,2013-08-04 17:32:00,
2013-08-04 10:37:00,77.5,26.2,30.21,WSW,256,5.0,9.0,15,0.00,,,0.00,WeatherDisplay:10.37,2013-08-04 17:37:00,
2013-08-04 10:47:00,77.7,26.4,30.21,SW,230,3.0,8.0,15,0.00,,,0.00,WeatherDisplay:10.37,2013-08-04 17:47:00,
2013-08-04 10:52:00,77.9,26.5,30.21,SW,227,2.0,8.0,15,0.00,,,0.00,WeatherDisplay:10.37,2013-08-04 17:52:00,
2013-08-04 10:57:00,78.3,26.9,30.21,SW,232,5.0,8.0,15,0.00,,,0.00,WeatherDisplay:10.37,2013-08-04 17:57:00,
2013-08-04 11:02:00,78.4,26.9,30.21,SW,236,3.0,10.0,15,0.00,,,0.00,WeatherDisplay:10.37,2013-08-04 18:02:00,
2013-08-04 11:07:00,78.8,27.2,30.21,WSW,237,3.0,7.0,15,0.00,,,0.00,WeatherDisplay:10.37,2013-08-04 18:07:00,
2013-08-04 11:12:00,78.8,27.2,30.21,SW,235,5.0,7.0,15,0.00,,,0.00,WeatherDisplay:10.37,2013-08-04 18:12:00,
2013-08-04 11:17:00,78.6,27.1,30.21,WSW,243,6.0,8.0,15,0.00,,,0.00,WeatherDisplay:10.37,2013-08-04 18:17:00,
2013-08-04 11:22:00,78.7,27.2,30.21,WSW,238,3.0,8.0,15,0.00,,,0.00,WeatherDisplay:10.37,2013-08-04 18:22:00,
2013-08-04 11:27:00,78.4,26.9,30.21,WSW,238,5.0,7.0,15,0.00,,,0.00,WeatherDisplay:10.37,2013-08-04 18:27:00,
2013-08-04 11:32:00,78.1,26.6,30.21,WSW,248,3.0,6.0,15,0.00,,,0.00,WeatherDisplay:10.37,2013-08-04 18:32:00,
2013-08-04 11:37:00,78.3,26.8,30.21,SW,232,5.0,7.0,15,0.00,,,0.00,WeatherDisplay:10.37,2013-08-04 18:37:00,
2013-08-04 11:42:00,78.5,27.0,30.21,WSW,248,5.0,8.0,15,0.00,,,0.00,WeatherDisplay:10.37,2013-08-04 18:42:00,
2013-08-04 11:52:00,78.7,27.1,30.21,WSW,237,3.0,9.0,15,0.00,,,0.00,WeatherDisplay:10.37,2013-08-04 18:52:00,
2013-08-04 11:57:00,78.8,27.2,30.21,WSW,241,6.0,8.0,15,0.00,,,0.00,WeatherDisplay:10.37,2013-08-04 18:57:00,
2013-08-04 12:07:00,79.0,27.4,30.21,WSW,240,3.0,9.0,15,0.00,,,0.00,WeatherDisplay:10.37,2013-08-04 19:07:00,
2013-08-04 12:12:00,78.8,27.2,30.21,WSW,249,5.0,8.0,15,0.00,,,0.00,WeatherDisplay:10.37,2013-08-04 19:12:00,
2013-08-04 12:17:00,79.2,27.5,30.21,WSW,242,3.0,6.0,15,0.00,,,0.00,WeatherDisplay:10.37,2013-08-04 19:17:00,
2013-08-04 12:22:00,79.7,27.9,30.21,SW,231,5.0,8.0,15,0.00,,,0.00,WeatherDisplay:10.37,2013-08-04 19:22:00,
2013-08-04 12:27:00,79.9,28.1,30.21,WSW,251,5.0,8.0,15,0.00,,,0.00,WeatherDisplay:10.37,2013-08-04 19:27:00,
2013-08-04 12:32:00,79.9,28.1,30.21,WSW,250,6.0,8.0,15,0.00,,,0.00,WeatherDisplay:10.37,2013-08-04 19:32:00,
2013-08-04 12:37:00,80.2,28.4,30.21,SW,235,3.0,8.0,15,0.00,,,0.00,WeatherDisplay:10.37,2013-08-04 19:37:00,
2013-08-04 12:42:00,80.1,28.2,30.21,SW,227,3.0,6.0,15,0.00,,,0.00,WeatherDisplay:10.37,2013-08-04 19:42:00,
2013-08-04 12:47:00,80.1,28.2,30.21,SW,231,3.0,6.0,15,0.00,,,0.00,WeatherDisplay:10.37,2013-08-04 19:47:00,
2013-08-04 12:52:00,80.2,28.4,30.21,SW,234,8.0,10.0,15,0.00,,,0.00,WeatherDisplay:10.37,2013-08-04 19:52:00,
2013-08-04 12:57:00,80.1,28.2,30.21,SW,236,6.0,9.0,15,0.00,,,0.00,WeatherDisplay:10.37,2013-08-04 19:57:00,
2013-08-04 13:02:00,80.1,28.2,30.21,SW,236,6.0,10.0,15,0.00,,,0.00,WeatherDisplay:10.37,2013-08-04 20:02:00,
2013-08-04 13:12:00,80.1,28.2,30.21,SW,227,5.0,9.0,15,0.00,,,0.00,WeatherDisplay:10.37,2013-08-04 20:12:00,
2013-08-04 13:22:00,79.5,27.8,30.21,WSW,254,3.0,12.0,15,0.00,,,0.00,WeatherDisplay:10.37,2013-08-04 20:22:00,
2013-08-04 13:27:00,79.7,27.9,30.21,WSW,239,3.0,8.0,15,0.00,,,0.00,WeatherDisplay:10.37,2013-08-04 20:27:00,
2013-08-04 13:32:00,80.1,28.2,30.21,WSW,241,6.0,12.0,15,0.00,,,0.00,WeatherDisplay:10.37,2013-08-04 20:32:00,
2013-08-04 13:37:00,80.2,28.4,30.21,WSW,247,6.0,12.0,15,0.00,,,0.00,WeatherDisplay:10.37,2013-08-04 20:37:00,
2013-08-04 13:42:00,79.7,27.9,30.21,WSW,249,5.0,12.0,15,0.00,,,0.00,WeatherDisplay:10.37,2013-08-04 20:42:00,
2013-08-04 13:47:00,79.0,27.4,30.21,WSW,248,5.0,11.0,15,0.00,,,0.00,WeatherDisplay:10.37,2013-08-04 20:47:00,
2013-08-04 13:52:00,78.1,26.6,30.21,WSW,247,5.0,8.0,15,0.00,,,0.00,WeatherDisplay:10.37,2013-08-04 20:52:00,
2013-08-04 13:57:00,77.4,26.1,30.21,WSW,239,7.0,13.0,15,0.00,,,0.00,WeatherDisplay:10.37,2013-08-04 20:57:00,
2013-08-04 14:02:00,77.4,26.1,30.21,WSW,240,5.0,11.0,15,0.00,,,0.00,WeatherDisplay:10.37,2013-08-04 21:02:00,
2013-08-04 14:07:00,77.4,26.1,30.21,WSW,241,7.0,12.0,15,0.00,,,0.00,WeatherDisplay:10.37,2013-08-04 21:07:00,
2013-08-04 14:12:00,77.5,26.2,30.21,WSW,242,6.0,12.0,15,0.00,,,0.00,WeatherDisplay:10.37,2013-08-04 21:12:00,
2013-08-04 14:22:00,79.2,27.5,30.21,WSW,244,3.0,8.0,15,0.00,,,0.00,WeatherDisplay:10.37,2013-08-04 21:22:00,
2013-08-04 14:27:00,79.9,28.1,30.21,SW,227,5.0,8.0,15,0.00,,,0.00,WeatherDisplay:10.37,2013-08-04 21:27:00,
2013-08-04 14:32:00,80.1,28.2,30.21,SW,230,6.0,13.0,15,0.00,,,0.00,WeatherDisplay:10.37,2013-08-04 21:32:00,
2013-08-04 14:37:00,80.1,28.2,30.21,SW,223,5.0,8.0,15,0.00,,,0.00,WeatherDisplay:10.37,2013-08-04 21:37:00,
2013-08-04 14:42:00,80.2,28.4,30.21,SW,234,5.0,8.0,15,0.00,,,0.00,WeatherDisplay:10.37,2013-08-04 21:42:00,
2013-08-04 14:47:00,80.2,28.4,30.21,WSW,242,2.0,12.0,15,0.00,,,0.00,WeatherDisplay:10.37,2013-08-04 21:47:00,
2013-08-04 14:52:00,80.6,26.9,30.21,WSW,242,6.0,13.0,14,0.00,,,0.00,WeatherDisplay:10.37,2013-08-04 21:52:00,
2013-08-04 14:57:00,80.4,28.5,30.21,SW,230,6.0,13.0,15,0.00,,,0.00,WeatherDisplay:10.37,2013-08-04 21:57:00,
2013-08-04 15:02:00,80.2,28.4,30.18,SW,228,7.0,9.0,15,0.00,,,0.00,WeatherDisplay:10.37,2013-08-04 22:02:00,
2013-08-04 15:07:00,79.7,27.9,30.18,SW,232,3.0,10.0,15,0.00,,,0.00,WeatherDisplay:10.37,2013-08-04 22:07:00,
2013-08-04 15:12:00,79.5,27.8,30.18,SW,222,6.0,8.0,15,0.00,,,0.00,WeatherDisplay:10.37,2013-08-04 22:12:00,
2013-08-04 15:17:00,79.5,27.8,30.18,SW,224,6.0,12.0,15,0.00,,,0.00,WeatherDisplay:10.37,2013-08-04 22:17:00,
2013-08-04 15:22:00,79.3,27.6,30.18,WSW,238,5.0,12.0,15,0.00,,,0.00,WeatherDisplay:10.37,2013-08-04 22:22:00,
2013-08-04 15:27:00,79.3,27.6,30.18,SW,226,6.0,9.0,15,0.00,,,0.00,WeatherDisplay:10.37,2013-08-04 22:27:00,
2013-08-04 15:32:00,78.8,27.2,30.18,SW,226,3.0,12.0,15,0.00,,,0.00,WeatherDisplay:10.37,2013-08-04 22:32:00,
2013-08-04 15:37:00,78.8,27.2,30.18,WSW,248,7.0,10.0,15,0.00,,,0.00,WeatherDisplay:10.37,2013-08-04 22:37:00,
2013-08-04 15:42:00,78.6,27.1,30.18,WSW,246,5.0,8.0,15,0.00,,,0.00,WeatherDisplay:10.37,2013-08-04 22:42:00,
2013-08-04 15:52:00,78.4,26.9,30.18,WSW,242,6.0,10.0,15,0.00,,,0.00,WeatherDisplay:10.37,2013-08-04 22:52:00,
2013-08-04 15:57:00,78.3,26.8,30.18,WSW,252,3.0,9.0,15,0.00,,,0.00,WeatherDisplay:10.37,2013-08-04 22:57:00,
2013-08-04 16:02:00,78.0,26.5,30.18,WSW,248,6.0,11.0,15,0.00,,,0.00,WeatherDisplay:10.37,2013-08-04 23:02:00,
2013-08-04 16:07:00,77.7,26.4,30.18,WSW,242,3.0,11.0,15,0.00,,,0.00,WeatherDisplay:10.37,2013-08-04 23:07:00,
2013-08-04 16:12:00,77.7,26.3,30.18,SW,227,5.0,8.0,15,0.00,,,0.00,WeatherDisplay:10.37,2013-08-04 23:12:00,
2013-08-04 16:22:00,77.2,25.9,30.18,WSW,245,3.0,4.0,15,0.00,,,0.00,WeatherDisplay:10.37,2013-08-04 23:22:00,
2013-08-04 16:27:00,77.0,25.8,30.18,WSW,251,5.0,11.0,15,0.00,,,0.00,WeatherDisplay:10.37,2013-08-04 23:27:00,
2013-08-04 16:37:00,76.9,25.7,30.18,WNW,293,3.0,6.0,15,0.00,,,0.00,WeatherDisplay:10.37,2013-08-04 23:37:00,
2013-08-04 16:42:00,76.6,25.5,30.18,West,263,0.0,8.0,15,0.00,,,0.00,WeatherDisplay:10.37,2013-08-04 23:42:00,
2013-08-04 16:47:00,76.1,25.0,30.18,SW,234,3.0,6.0,15,0.00,,,0.00,WeatherDisplay:10.37,2013-08-04 23:47:00,
2013-08-04 16:52:00,75.7,24.8,30.18,SW,232,3.0,7.0,15,0.00,,,0.00,WeatherDisplay:10.37,2013-08-04 23:52:00,
2013-08-04 16:57:00,75.4,24.5,30.18,West,276,0.0,6.0,15,0.00,,,0.00,WeatherDisplay:10.37,2013-08-04 23:57:00,
2013-08-04 17:02:00,74.8,25.6,30.18,WNW,297,2.0,8.0,16,0.00,,,0.00,WeatherDisplay:10.37,2013-08-05 00:02:00,
2013-08-04 17:07:00,74.3,25.2,30.18,WSW,247,5.0,8.0,16,0.00,,,0.00,WeatherDisplay:10.37,2013-08-05 00:07:00,
2013-08-04 17:12:00,73.9,24.9,30.18,SW,235,0.0,10.0,16,0.00,,,0.00,WeatherDisplay:10.37,2013-08-05 00:12:00,
2013-08-04 17:17:00,73.9,24.9,30.18,WSW,243,5.0,6.0,16,0.00,,,0.00,WeatherDisplay:10.37,2013-08-05 00:17:00,
2013-08-04 17:22:00,73.9,24.9,30.18,West,262,5.0,7.0,16,0.00,,,0.00,WeatherDisplay:10.37,2013-08-05 00:22:00,
2013-08-04 17:27:00,73.7,24.7,30.18,WSW,238,3.0,8.0,16,0.00,,,0.00,WeatherDisplay:10.37,2013-08-05 00:27:00,
2013-08-04 17:32:00,73.4,24.4,30.18,SW,224,3.0,8.0,16,0.00,,,0.00,WeatherDisplay:10.37,2013-08-05 00:32:00,
2013-08-04 17:37:00,73.2,24.3,30.18,SW,217,2.0,6.0,16,0.00,,,0.00,WeatherDisplay:10.37,2013-08-05 00:37:00,
2013-08-04 17:42:00,73.1,24.2,30.18,SW,219,3.0,8.0,16,0.00,,,0.00,WeatherDisplay:10.37,2013-08-05 00:42:00,
2013-08-04 17:52:00,72.9,24.0,30.18,SW,232,3.0,6.0,16,0.00,,,0.00,WeatherDisplay:10.37,2013-08-05 00:52:00,
2013-08-04 17:57:00,72.6,23.8,30.18,SW,234,3.0,8.0,16,0.00,,,0.00,WeatherDisplay:10.37,2013-08-05 00:57:00,
2013-08-04 18:02:00,72.3,23.6,30.18,WSW,238,5.0,8.0,16,0.00,,,0.00,WeatherDisplay:10.37,2013-08-05 01:02:00,
2013-08-04 18:07:00,72.0,23.3,30.18,WSW,238,3.0,9.0,16,0.00,,,0.00,WeatherDisplay:10.37,2013-08-05 01:07:00,
2013-08-04 18:12:00,71.8,23.1,30.18,WSW,238,3.0,13.0,16,0.00,,,0.00,WeatherDisplay:10.37,2013-08-05 01:12:00,
2013-08-04 18:17:00,71.7,23.1,30.18,WSW,241,3.0,6.0,16,0.00,,,0.00,WeatherDisplay:10.37,2013-08-05 01:17:00,
2013-08-04 18:22:00,71.5,24.4,30.18,WSW,241,3.0,8.0,17,0.00,,,0.00,WeatherDisplay:10.37,2013-08-05 01:22:00,
2013-08-04 18:32:00,71.1,24.0,30.18,SW,234,2.0,6.0,17,0.00,,,0.00,WeatherDisplay:10.37,2013-08-05 01:32:00,
2013-08-04 18:37:00,70.7,23.7,30.18,SW,223,2.0,8.0,17,0.00,,,0.00,WeatherDisplay:10.37,2013-08-05 01:37:00,
2013-08-04 18:42:00,70.5,23.6,30.18,SW,229,3.0,8.0,17,0.00,,,0.00,WeatherDisplay:10.37,2013-08-05 01:42:00,
2013-08-04 18:47:00,70.2,23.3,30.18,SW,232,3.0,8.0,17,0.00,,,0.00,WeatherDisplay:10.37,2013-08-05 01:47:00,
2013-08-04 18:52:00,69.8,23.0,30.18,SW,224,3.0,6.0,17,0.00,,,0.00,WeatherDisplay:10.37,2013-08-05 01:52:00,
2013-08-04 18:57:00,69.6,22.8,30.18,SW,226,2.0,6.0,17,0.00,,,0.00,WeatherDisplay:10.37,2013-08-05 01:57:00,
2013-08-04 19:02:00,69.3,22.5,30.18,SW,228,0.0,6.0,17,0.00,,,0.00,WeatherDisplay:10.37,2013-08-05 02:02:00,
2013-08-04 19:07:00,68.8,22.2,30.18,SW,218,3.0,6.0,17,0.00,,,0.00,WeatherDisplay:10.37,2013-08-05 02:07:00,
2013-08-04 19:12:00,68.4,21.8,30.18,SW,216,0.0,2.0,17,0.00,,,0.00,WeatherDisplay:10.37,2013-08-05 02:12:00,
2013-08-04 19:17:00,68.0,21.5,30.18,SW,234,1.0,6.0,17,0.00,,,0.00,WeatherDisplay:10.37,2013-08-05 02:17:00,
2013-08-04 19:22:00,68.0,21.5,30.18,WSW,241,3.0,8.0,17,0.00,,,0.00,WeatherDisplay:10.37,2013-08-05 02:22:00,
2013-08-04 19:27:00,67.8,21.4,30.18,SW,233,2.0,5.0,17,0.00,,,0.00,WeatherDisplay:10.37,2013-08-05 02:27:00,
2013-08-04 19:32:00,67.6,21.2,30.18,WSW,238,3.0,6.0,17,0.00,,,0.00,WeatherDisplay:10.37,2013-08-05 02:32:00,
2013-08-04 19:37:00,67.3,20.9,30.18,WSW,247,0.0,5.0,17,0.00,,,0.00,WeatherDisplay:10.37,2013-08-05 02:37:00,
2013-08-04 19:42:00,66.9,20.6,30.18,WSW,250,3.0,7.0,17,0.00,,,0.00,WeatherDisplay:10.37,2013-08-05 02:42:00,
2013-08-04 19:47:00,66.7,20.5,30.18,WSW,253,0.0,2.0,17,0.00,,,0.00,WeatherDisplay:10.37,2013-08-05 02:47:00,
2013-08-04 19:52:00,66.6,20.3,30.18,WSW,237,3.0,5.0,17,0.00,,,0.00,WeatherDisplay:10.37,2013-08-05 02:52:00,
2013-08-04 19:57:00,66.4,20.2,30.18,SW,231,0.0,6.0,17,0.00,,,0.00,WeatherDisplay:10.37,2013-08-05 02:57:00,
2013-08-04 20:02:00,66.4,20.2,30.18,SW,233,3.0,6.0,17,0.00,,,0.00,WeatherDisplay:10.37,2013-08-05 03:02:00,
2013-08-04 20:07:00,66.2,20.1,30.18,WSW,249,2.0,6.0,17,0.00,,,0.00,WeatherDisplay:10.37,2013-08-05 03:07:00,
2013-08-04 20:12:00,66.0,21.2,30.18,WSW,253,0.0,5.0,18,0.00,,,0.00,WeatherDisplay:10.37,2013-08-05 03:12:00,
2013-08-04 20:17:00,65.8,21.1,30.18,SW,234,5.0,6.0,18,0.00,,,0.00,WeatherDisplay:10.37,2013-08-05 03:17:00,
2013-08-04 20:22:00,65.7,21.0,30.18,WSW,237,2.0,6.0,18,0.00,,,0.00,WeatherDisplay:10.37,2013-08-05 03:22:00,
2013-08-04 20:27:00,65.7,21.0,30.18,SW,232,3.0,6.0,18,0.00,,,0.00,WeatherDisplay:10.37,2013-08-05 03:27:00,
2013-08-04 20:32:00,65.5,20.8,30.18,WSW,240,5.0,8.0,18,0.00,,,0.00,WeatherDisplay:10.37,2013-08-05 03:32:00,
2013-08-04 20:37:00,65.5,20.8,30.18,WSW,248,2.0,6.0,18,0.00,,,0.00,WeatherDisplay:10.37,2013-08-05 03:37:00,
2013-08-04 20:42:00,65.5,20.8,30.18,WSW,243,1.0,6.0,18,0.00,,,0.00,WeatherDisplay:10.37,2013-08-05 03:42:00,
2013-08-04 20:47:00,65.1,20.5,30.18,WSW,246,2.0,4.0,18,0.00,,,0.00,WeatherDisplay:10.37,2013-08-05 03:47:00,
2013-08-04 20:52:00,65.1,20.5,30.18,WSW,240,2.0,6.0,18,0.00,,,0.00,WeatherDisplay:10.37,2013-08-05 03:52:00,
2013-08-04 20:57:00,65.1,20.5,30.18,WSW,242,0.0,4.0,18,0.00,,,0.00,WeatherDisplay:10.37,2013-08-05 03:57:00,
2013-08-04 21:02:00,64.9,20.4,30.21,SW,235,2.0,4.0,18,0.00,,,0.00,WeatherDisplay:10.37,2013-08-05 04:02:00,
2013-08-04 21:07:00,64.6,20.1,30.21,SSW,211,0.0,2.0,18,0.00,,,0.00,WeatherDisplay:10.37,2013-08-05 04:07:00,
2013-08-04 21:12:00,64.4,19.9,30.21,SW,235,0.0,3.0,18,0.00,,,0.00,WeatherDisplay:10.37,2013-08-05 04:12:00,
2013-08-04 21:17:00,64.4,19.9,30.21,WSW,244,0.0,5.0,18,0.00,,,0.00,WeatherDisplay:10.37,2013-08-05 04:17:00,
2013-08-04 21:22:00,64.2,19.8,30.21,WSW,239,0.0,4.0,18,0.00,,,0.00,WeatherDisplay:10.37,2013-08-05 04:22:00,
2013-08-04 21:32:00,64.2,19.8,30.21,WSW,251,2.0,4.0,18,0.00,,,0.00,WeatherDisplay:10.37,2013-08-05 04:32:00,
2013-08-04 21:37:00,64.2,19.8,30.21,WSW,240,0.0,3.0,18,0.00,,,0.00,WeatherDisplay:10.37,2013-08-05 04:37:00,
2013-08-04 21:42:00,63.8,19.4,30.21,WSW,237,0.0,0.0,18,0.00,,,0.00,WeatherDisplay:10.37,2013-08-05 04:42:00,
2013-08-04 21:47:00,63.5,19.2,30.21,WSW,237,0.0,0.0,18,0.00,,,0.00,WeatherDisplay:10.37,2013-08-05 04:47:00,
2013-08-04 21:52:00,63.5,19.2,30.21,WSW,242,0.0,0.0,18,0.00,,,0.00,WeatherDisplay:10.37,2013-08-05 04:52:00,
2013-08-04 21:57:00,63.7,19.3,30.21,West,278,0.0,0.0,18,0.00,,,0.00,WeatherDisplay:10.37,2013-08-05 04:57:00,
2013-08-04 22:02:00,63.9,19.5,30.21,North,4,0.0,0.0,18,0.00,,,0.00,WeatherDisplay:10.37,2013-08-05 05:02:00,
2013-08-04 22:12:00,63.9,19.5,30.21,North,350,0.0,0.0,18,0.00,,,0.00,WeatherDisplay:10.37,2013-08-05 05:12:00,
2013-08-04 22:22:00,63.7,19.4,30.21,NNW,340,0.0,0.0,18,0.00,,,0.00,WeatherDisplay:10.37,2013-08-05 05:22:00,
2013-08-04 22:32:00,63.5,19.2,30.21,NNW,340,0.0,0.0,18,0.00,,,0.00,WeatherDisplay:10.37,2013-08-05 05:32:00,
2013-08-04 22:37:00,63.3,19.0,30.21,NNW,340,0.0,0.0,18,0.00,,,0.00,WeatherDisplay:10.37,2013-08-05 05:37:00,
2013-08-04 22:42:00,63.3,19.0,30.21,NNW,340,0.0,0.0,18,0.00,,,0.00,WeatherDisplay:10.37,2013-08-05 05:42:00,
2013-08-04 22:52:00,63.1,18.9,30.21,NNW,340,0.0,0.0,18,0.00,,,0.00,WeatherDisplay:10.37,2013-08-05 05:52:00,
2013-08-04 22:57:00,63.1,18.9,30.21,NNW,340,0.0,0.0,18,0.00,,,0.00,WeatherDisplay:10.37,2013-08-05 05:57:00,
2013-08-04 23:02:00,63.1,18.9,30.21,NNW,340,0.0,0.0,18,0.00,,,0.00,WeatherDisplay:10.37,2013-08-05 06:02:00,
2013-08-04 23:07:00,63.1,18.9,30.21,NNW,340,0.0,0.0,18,0.00,,,0.00,WeatherDisplay:10.37,2013-08-05 06:07:00,
2013-08-04 23:12:00,63.0,18.7,30.21,NNW,340,0.0,0.0,18,0.00,,,0.00,WeatherDisplay:10.37,2013-08-05 06:12:00,
2013-08-04 23:17:00,63.1,18.9,30.21,NNW,340,0.0,0.0,18,0.00,,,0.00,WeatherDisplay:10.37,2013-08-05 06:17:00,
2013-08-04 23:22:00,63.0,18.7,30.21,NNW,340,0.0,0.0,18,0.00,,,0.00,WeatherDisplay:10.37,2013-08-05 06:22:00,
2013-08-04 23:27:00,63.1,18.9,30.21,NNW,340,0.0,0.0,18,0.00,,,0.00,WeatherDisplay:10.37,2013-08-05 06:27:00,
2013-08-04 23:32:00,63.3,19.0,30.21,NNW,340,0.0,0.0,18,0.00,,,0.00,WeatherDisplay:10.37,2013-08-05 06:32:00,
2013-08-04 23:37:00,63.3,19.0,30.21,NNW,340,0.0,0.0,18,0.00,,,0.00,WeatherDisplay:10.37,2013-08-05 06:37:00,
2013-08-04 23:42:00,63.1,18.9,30.21,NNW,340,0.0,0.0,18,0.00,,,0.00,WeatherDisplay:10.37,2013-08-05 06:42:00,
2013-08-04 23:47:00,63.1,18.9,30.21,NNW,340,0.0,0.0,18,0.00,,,0.00,WeatherDisplay:10.37,2013-08-05 06:47:00,
2013-08-04 23:52:00,63.0,18.8,30.21,NNW,340,0.0,0.0,18,0.00,,,0.00,WeatherDisplay:10.37,2013-08-05 06:52:00,
2013-08-04 23:57:00,63.0,18.7,30.21,NNW,340,0.0,0.0,18,0.00,,,0.00,WeatherDisplay:10.37,2013-08-05 06:57:00,